Weather Roundup
Issued by NWS Chicago, IL

Home | Current Version | Previous Version | Text Only | Print | Product List | Glossary On
Versions: 1 2 3 4 5 6 7 8 9 10 11 12 13 14 15 16 17 18 19 20 21 22 23 24 25 26 27 28 29 30 31 32 33 34 35 36 37 38 39 40 41 42 43 44 45 46 47 48 49 50
000
NZUS59 KLOT 270521
HRRLOT

CHICAGO AREA WEATHER ROUNDUP
NATIONAL WEATHER SERVICE CHICAGO/ROMEOVILLE IL
1200 AM CDT FRI MAR 27 2015

NOTE: "FAIR" INDICATES FEW OR NO CLOUDS BELOW 12,000 FEET WITH NO
SIGNIFICANT WEATHER AND/OR OBSTRUCTIONS TO VISIBILITY.

* THESE STATIONS ARE NOT UNDER NWS QUALITY CONTROL. THEY ALSO MAY NOT
  REPORT WEATHER SUCH AS PRECIPITATION OR FOG.

ILZ005-006-012>014-019>023-270600-
NORTHEAST ILLINOIS

CITY           SKY/WX    TMP DP  RH WIND       PRES   REMARKS
OHARE          CLOUDY    32  17  54 N16G23    30.07R WCI  21
MIDWAY         CLOUDY    35  18  49 N15       30.07S WCI  25
AURORA         CLOUDY    33  20  58 N12       30.08R WCI  24
LANSING*       FLURRIES  33  23  67 N8G18     30.06S WCI  25
JOLIET*        CLOUDY    35  23  61 N9        30.07S WCI  28
WAUKEGAN       CLOUDY    30  18  60 N8        30.08R WCI  22
DUPAGE AIRPORT CLOUDY    32  17  54 N12       30.07R WCI  23
WHEELING       CLOUDY    31  16  54 N10G18    30.10R WCI  22
KANKAKEE*      CLOUDY    35  27  73 N3        30.06R
MORRIS*        CLOUDY    32  23  68 NW7       30.06S WCI  26
LEWIS AIRPORT* CLOUDY    33  21  62 N14       30.07R WCI  23
NORTHERLY IS     N/A     33  19  56 N13         N/A  WCI  24
$$

WIZ051-052-058>065-066-070>072-270600-
SOUTHEAST WISCONSIN

CITY           SKY/WX    TMP DP  RH WIND       PRES   REMARKS
MILWAUKEE      LGT SNOW  28  22  78 NE13G21   30.10R WCI  17
KENOSHA*       CLOUDY    31  19  61 N8        30.08S WCI  23
RACINE*        LGT SNOW  29  24  82 N14       30.11R WCI  18
BURLINGTON     FLURRIES  28  19  71 N8        30.09S WCI  19
WAUKESHA       CLOUDY    28  18  64 N8G16     30.10R WCI  20
WEST BEND      FLURRIES  27  19  74 N8        30.10R WCI  18
$$

INZ001>003-010>013-019-020-270600-
NORTHWEST INDIANA

CITY           SKY/WX    TMP DP  RH WIND       PRES   REMARKS
GARY*          CLOUDY    34  21  58 N15G21    30.07S WCI  25
MICHIGAN CITY* NOT AVBL
RENSSELAER*    NOT AVBL
VALPARAISO     FLURRIES  32  24  72 N8        30.05S WCI  25
$$

LMZ740>746-270600-
SOUTHERN LAKE MICHIGAN

STATION/POSITION TIME  SKY/WX   TEMP WIND        PRES    VSBY
                                AIR  DIR/SP/G
                 (UTC)          (F)  (DEG/KT/KT) (MB)    (MI)
HARRISON CRIB    0500            33  340/ 21/ 25   N/A
BURNHAM HARBOR   0500            34  320/ 12/ 18   N/A
CALUMET HARBOR   0400            33  340/ 12/ 17 1017.0R
BURNS HARBOR     0400            34  360/ 15/ 19 1018.3R
MICHIGAN CITY    0500            32  320/ 19/ 21   N/A
$$

ABBREVIATIONS USED IN REMARKS
   TC - TEMPERATURE IN CELSIUS
  WCI - WIND CHILL INDEX
   HX - HEAT INDEX
  VSB - VISIBILITY
$$



USA.gov is the U.S. government's official web portal to all federal, state and local government web resources and services.